URO661A EGHH-EDDM

Flight info

Callsign URO661A
Flight time 1h 20m
Altitude 23000
Route SAM L620 MID L18 DVR L9 KONAN/N0405F190 L607 UBIDU L984 ASKIK Z74 KOSEK L603 CINDY Z74 HAREM T104 ROKIL ROKIL1A
Aircraft A346/H-SDE2E3FGHIJ3J4J5M1RWXY/LB1D1

Departure

Time 2026-05-09 10:44
Airport Bournemouth Airport (EGHH)

Arrival

Time 2026-05-09 12:04
Airport Munich Airport (EDDM)
Time Latitude Longitude Altitude Speed Heading
2026-05-09 10:38 50.77783 -1.84078 54 ft 2 kts 165°
2026-05-09 10:38 50.77761 -1.84054 49 ft 6 kts 133°
2026-05-09 10:38 50.77732 -1.83987 48 ft 9 kts 121°
2026-05-09 10:39 50.77691 -1.83882 49 ft 13 kts 121°
2026-05-09 10:39 50.77660 -1.83758 50 ft 8 kts 57°
2026-05-09 10:39 50.77723 -1.83756 51 ft 12 kts 346°
2026-05-09 10:39 50.77815 -1.83795 50 ft 16 kts 345°
2026-05-09 10:40 50.77934 -1.83846 50 ft 20 kts 345°
2026-05-09 10:40 50.78044 -1.83966 48 ft 22 kts 274°
2026-05-09 10:40 50.78017 -1.84215 51 ft 24 kts 252°
2026-05-09 10:40 50.77964 -1.84485 48 ft 27 kts 252°
2026-05-09 10:41 50.77917 -1.84776 56 ft 28 kts 256°
2026-05-09 10:41 50.77866 -1.85086 51 ft 30 kts 255°
2026-05-09 10:41 50.77812 -1.85417 53 ft 32 kts 257°
2026-05-09 10:41 50.77755 -1.85664 52 ft 1 kts 225°
2026-05-09 10:42 50.77750 -1.85673 53 ft 2 kts 224°
2026-05-09 10:42 50.77733 -1.85705 50 ft 5 kts 236°
2026-05-09 10:42 50.77727 -1.85769 49 ft 7 kts 300°
2026-05-09 10:42 50.77744 -1.85776 47 ft 2 kts 12°
2026-05-09 10:43 50.77756 -1.85752 50 ft 5 kts 71°
2026-05-09 10:43 50.77769 -1.85682 53 ft 9 kts 74°
2026-05-09 10:43 50.77826 -1.85346 49 ft 69 kts 75°
2026-05-09 10:43 50.78010 -1.84242 52 ft 136 kts 76°
2026-05-09 10:44 50.78273 -1.82599 383 ft 163 kts 78°
2026-05-09 10:44 50.78524 -1.80827 1177 ft 167 kts 77°
2026-05-09 10:44 50.78804 -1.79024 2007 ft 168 kts 75°
2026-05-09 10:44 50.79286 -1.77358 2666 ft 168 kts 59°
2026-05-09 10:45 50.80005 -1.75834 3239 ft 178 kts 54°
2026-05-09 10:46 50.83170 -1.67907 4990 ft 252 kts 60°
2026-05-09 10:46 50.84098 -1.65437 5502 ft 266 kts 60°
2026-05-09 10:46 50.85046 -1.62906 6629 ft 265 kts 60°
2026-05-09 10:46 50.85987 -1.60379 7698 ft 268 kts 60°
2026-05-09 10:47 50.86941 -1.57805 8677 ft 274 kts 60°
2026-05-09 10:47 50.87920 -1.55159 9661 ft 281 kts 59°
2026-05-09 10:47 50.88923 -1.52452 10626 ft 288 kts 59°
2026-05-09 10:47 50.89954 -1.49667 11316 ft 305 kts 59°
2026-05-09 10:48 50.91067 -1.46649 11921 ft 324 kts 59°
2026-05-09 10:48 50.92240 -1.43466 12510 ft 343 kts 59°
2026-05-09 10:48 50.93398 -1.40315 13052 ft 361 kts 59°
2026-05-09 10:48 50.94627 -1.36716 13583 ft 380 kts 64°
2026-05-09 10:49 50.95645 -1.32741 14159 ft 395 kts 71°
2026-05-09 10:49 50.96390 -1.28501 14955 ft 401 kts 77°
2026-05-09 10:49 50.97011 -1.24150 15836 ft 406 kts 78°
2026-05-09 10:49 50.97619 -1.19688 16740 ft 410 kts 79°
2026-05-09 10:50 50.98233 -1.15172 17579 ft 417 kts 79°
2026-05-09 10:50 50.98842 -1.10701 18426 ft 421 kts 79°
2026-05-09 10:50 50.99459 -1.06120 19168 ft 426 kts 80°
2026-05-09 10:50 50.99895 -1.01440 19910 ft 430 kts 84°
2026-05-09 10:51 51.00257 -0.96657 20658 ft 434 kts 85°
2026-05-09 10:51 51.00607 -0.91862 21404 ft 439 kts 85°
2026-05-09 10:51 51.00966 -0.87024 22172 ft 442 kts 85°
2026-05-09 10:51 51.01333 -0.82148 22928 ft 446 kts 85°
2026-05-09 10:52 51.01708 -0.77220 23657 ft 451 kts 85°
2026-05-09 10:52 51.02087 -0.72253 24254 ft 455 kts 85°
2026-05-09 10:52 51.02472 -0.67241 24887 ft 458 kts 86°
2026-05-09 10:52 51.02858 -0.62190 25531 ft 461 kts 86°
2026-05-09 10:53 51.03245 -0.57114 26170 ft 463 kts 86°
2026-05-09 10:53 51.03632 -0.52003 26777 ft 466 kts 87°
2026-05-09 10:53 51.04019 -0.46859 27397 ft 469 kts 87°
2026-05-09 10:53 51.04401 -0.41750 28003 ft 472 kts 87°
2026-05-09 10:54 51.04788 -0.36541 28613 ft 475 kts 88°
2026-05-09 10:54 51.05175 -0.31315 29338 ft 475 kts 88°
2026-05-09 10:54 51.05560 -0.26113 30267 ft 470 kts 88°
2026-05-09 10:54 51.05938 -0.20970 31097 ft 465 kts 89°
2026-05-09 10:55 51.06309 -0.15873 31864 ft 462 kts 89°
2026-05-09 10:55 51.06675 -0.10795 32586 ft 460 kts 89°
2026-05-09 10:55 51.07037 -0.05732 33297 ft 459 kts 89°
2026-05-09 10:55 51.07396 -0.00670 33991 ft 456 kts 90°
2026-05-09 10:56 51.07750 0.04362 34675 ft 455 kts 90°
2026-05-09 10:56 51.08095 0.09361 35209 ft 456 kts 89°
2026-05-09 10:56 51.08445 0.14445 35657 ft 458 kts 89°
2026-05-09 10:56 51.08793 0.19506 36098 ft 460 kts 89°
2026-05-09 10:57 51.09142 0.24590 36546 ft 462 kts 88°
2026-05-09 10:57 51.09491 0.29689 36966 ft 464 kts 88°
2026-05-09 10:57 51.09839 0.34803 37370 ft 465 kts 88°
2026-05-09 10:57 51.10187 0.39945 37750 ft 467 kts 88°
2026-05-09 10:58 51.10535 0.45106 38063 ft 470 kts 88°
2026-05-09 10:58 51.10882 0.50300 38320 ft 473 kts 87°
2026-05-09 10:58 51.11232 0.55565 38595 ft 476 kts 87°
2026-05-09 10:58 51.11579 0.60827 38867 ft 479 kts 87°
2026-05-09 10:59 51.11927 0.66128 39082 ft 481 kts 87°
2026-05-09 10:59 51.12274 0.71445 39230 ft 484 kts 87°
2026-05-09 10:59 51.12620 0.76787 39224 ft 485 kts 87°
2026-05-09 11:00 51.13302 0.87425 39181 ft 485 kts 87°
2026-05-09 11:00 51.13976 0.98141 39106 ft 485 kts 87°
2026-05-09 11:01 51.14641 1.08881 39118 ft 485 kts 87°
2026-05-09 11:01 51.15294 1.19589 39127 ft 485 kts 87°
2026-05-09 11:02 51.15912 1.30300 39131 ft 484 kts 89°
2026-05-09 11:02 51.15996 1.41003 39131 ft 481 kts 96°
2026-05-09 11:03 51.15524 1.51630 39130 ft 479 kts 97°
2026-05-09 11:03 51.14998 1.62237 39123 ft 479 kts 97°
2026-05-09 11:04 51.14469 1.72840 39115 ft 479 kts 97°
2026-05-09 11:04 51.13935 1.83416 39113 ft 478 kts 97°
2026-05-09 11:05 51.13394 1.93912 39108 ft 478 kts 97°
2026-05-09 11:05 51.12849 2.04507 39114 ft 479 kts 97°
2026-05-09 11:06 51.12412 2.13372 39118 ft 479 kts 97°
2026-05-09 11:06 51.11885 2.23883 39117 ft 478 kts 97°
2026-05-09 11:07 51.11341 2.34465 39113 ft 478 kts 97°
2026-05-09 11:07 51.10785 2.45033 39110 ft 479 kts 97°
2026-05-09 11:08 51.10220 2.55610 39112 ft 479 kts 97°
2026-05-09 11:08 51.09427 2.66124 39115 ft 477 kts 103°
2026-05-09 11:09 51.07998 2.76422 39114 ft 475 kts 107°
2026-05-09 11:09 51.06413 2.86640 39131 ft 475 kts 107°
2026-05-09 11:10 51.04817 2.96868 39133 ft 476 kts 107°
2026-05-09 11:10 51.03215 3.07099 39130 ft 476 kts 107°
2026-05-09 11:11 51.01607 3.17310 39119 ft 476 kts 107°
2026-05-09 11:11 50.99992 3.27506 39113 ft 476 kts 107°
2026-05-09 11:12 50.98374 3.37645 39106 ft 477 kts 107°
2026-05-09 11:12 50.96732 3.47870 39107 ft 477 kts 107°
2026-05-09 11:13 50.95087 3.58107 39107 ft 477 kts 107°
2026-05-09 11:13 50.93453 3.68341 39107 ft 478 kts 107°
2026-05-09 11:14 50.91833 3.78564 39102 ft 478 kts 107°
2026-05-09 11:14 50.90195 3.88815 39107 ft 479 kts 107°
2026-05-09 11:15 50.88545 3.99067 39117 ft 480 kts 107°
2026-05-09 11:15 50.86874 4.09252 39125 ft 479 kts 107°
2026-05-09 11:16 50.85151 4.19470 39137 ft 479 kts 107°
2026-05-09 11:16 50.83419 4.29679 39139 ft 479 kts 107°
2026-05-09 11:17 50.81679 4.39895 39138 ft 479 kts 107°
2026-05-09 11:17 50.79503 4.52598 39143 ft 479 kts 108°
2026-05-09 11:18 50.71030 5.02075 39125 ft 481 kts 108°
2026-05-09 11:18 50.69220 5.12246 39120 ft 480 kts 108°
2026-05-09 11:19 50.67392 5.22435 39115 ft 482 kts 107°
2026-05-09 11:19 50.60806 5.58408 39120 ft 481 kts 111°
2026-05-09 11:19 50.57105 5.70470 39115 ft 480 kts 123°
2026-05-09 11:20 50.50817 5.82632 39107 ft 476 kts 138°
2026-05-09 11:20 50.45961 5.89711 39110 ft 476 kts 139°
2026-05-09 11:21 50.41116 5.96790 39105 ft 476 kts 139°
2026-05-09 11:21 50.36338 6.04004 39097 ft 478 kts 134°
2026-05-09 11:22 50.32316 6.12356 39096 ft 483 kts 122°
2026-05-09 11:22 50.29450 6.21889 39097 ft 485 kts 110°
2026-05-09 11:23 50.27844 6.32166 39089 ft 487 kts 101°
2026-05-09 11:23 50.26762 6.42563 39090 ft 487 kts 100°
2026-05-09 11:24 50.25664 6.53041 39088 ft 488 kts 100°
2026-05-09 11:24 50.24536 6.63537 39100 ft 488 kts 100°
2026-05-09 11:25 50.23390 6.74012 39120 ft 488 kts 100°
2026-05-09 11:25 50.22289 6.84498 39135 ft 489 kts 98°
2026-05-09 11:26 50.21645 6.95097 39143 ft 490 kts 95°
2026-05-09 11:26 50.21100 7.05733 39141 ft 490 kts 95°
2026-05-09 11:27 50.20543 7.16297 39139 ft 490 kts 95°
2026-05-09 11:27 50.19875 7.26909 39144 ft 490 kts 98°
2026-05-09 11:28 50.18556 7.37367 39127 ft 491 kts 104°
2026-05-09 11:28 50.16545 7.47593 39139 ft 492 kts 109°
2026-05-09 11:29 50.14368 7.57800 39128 ft 493 kts 109°
2026-05-09 11:29 50.12200 7.67952 39121 ft 493 kts 109°
2026-05-09 11:30 50.10029 7.78100 39128 ft 493 kts 109°
2026-05-09 11:30 50.07859 7.88262 39138 ft 494 kts 107°
2026-05-09 11:31 50.06143 7.98638 39130 ft 495 kts 101°
2026-05-09 11:31 50.05127 8.09172 39137 ft 494 kts 95°
2026-05-09 11:32 50.04858 8.19861 39137 ft 494 kts 89°
2026-05-09 11:32 50.05008 8.30587 39151 ft 495 kts 88°
2026-05-09 11:33 50.05021 8.41319 39145 ft 496 kts 93°
2026-05-09 11:33 50.02366 8.56783 39145 ft 496 kts 119°
2026-05-09 11:34 49.98336 8.65487 39147 ft 495 kts 129°
2026-05-09 11:34 49.93988 8.73800 39135 ft 495 kts 130°
2026-05-09 11:35 49.89674 8.82064 39016 ft 496 kts 129°
2026-05-09 11:35 49.87506 8.86232 38796 ft 496 kts 129°
2026-05-09 11:35 49.85344 8.90389 38518 ft 495 kts 129°
2026-05-09 11:36 49.83179 8.94553 38216 ft 495 kts 129°
2026-05-09 11:36 49.81014 8.98710 37935 ft 495 kts 129°
2026-05-09 11:36 49.78845 9.02869 37664 ft 495 kts 129°
2026-05-09 11:36 49.76680 9.07015 37397 ft 495 kts 129°
2026-05-09 11:37 49.74509 9.11162 37118 ft 496 kts 129°
2026-05-09 11:37 49.72467 9.15061 36847 ft 497 kts 129°
2026-05-09 11:37 49.70285 9.19223 36469 ft 496 kts 129°
2026-05-09 11:37 49.68109 9.23368 35992 ft 496 kts 128°
2026-05-09 11:38 49.65934 9.27500 35440 ft 496 kts 128°
2026-05-09 11:38 49.63753 9.31638 34885 ft 495 kts 128°
2026-05-09 11:38 49.61578 9.35759 34314 ft 494 kts 128°
2026-05-09 11:38 49.59406 9.39869 33691 ft 494 kts 128°
2026-05-09 11:39 49.57228 9.43994 33020 ft 495 kts 128°
2026-05-09 11:39 49.55043 9.48119 32370 ft 496 kts 128°
2026-05-09 11:39 49.52858 9.52233 31660 ft 497 kts 128°
2026-05-09 11:40 49.48479 9.60464 30342 ft 495 kts 128°
2026-05-09 11:40 49.46292 9.64567 29594 ft 494 kts 128°
2026-05-09 11:40 49.44143 9.68592 28912 ft 493 kts 128°
2026-05-09 11:40 49.41959 9.72678 28241 ft 493 kts 128°
2026-05-09 11:41 49.39791 9.76723 27770 ft 487 kts 128°
2026-05-09 11:41 49.37639 9.80734 27379 ft 485 kts 128°
2026-05-09 11:41 49.35494 9.84723 26982 ft 482 kts 128°
2026-05-09 11:41 49.33361 9.88680 26463 ft 479 kts 128°
2026-05-09 11:42 49.31250 9.92597 25959 ft 473 kts 128°
2026-05-09 11:42 49.29168 9.96454 25649 ft 464 kts 128°
2026-05-09 11:42 49.27250 10.00000 25294 ft 466 kts 128°
2026-05-09 11:42 49.25160 10.03860 25120 ft 468 kts 128°
2026-05-09 11:43 49.23094 10.07668 25114 ft 455 kts 128°
2026-05-09 11:43 49.21106 10.11324 25109 ft 438 kts 128°
2026-05-09 11:43 49.19195 10.14835 25117 ft 421 kts 128°
2026-05-09 11:43 49.17353 10.18218 25116 ft 405 kts 128°
2026-05-09 11:44 49.15601 10.21430 25110 ft 390 kts 128°
2026-05-09 11:44 49.13863 10.24527 25107 ft 379 kts 131°
2026-05-09 11:44 49.12012 10.27535 25031 ft 394 kts 132°
2026-05-09 11:44 49.10107 10.30587 24598 ft 399 kts 132°
2026-05-09 11:45 49.08166 10.33693 23821 ft 407 kts 132°
2026-05-09 11:45 49.06187 10.36864 22807 ft 417 kts 133°
2026-05-09 11:45 49.04167 10.40107 21762 ft 426 kts 133°
2026-05-09 11:45 49.02108 10.43406 21073 ft 429 kts 133°
2026-05-09 11:46 49.00048 10.46702 20436 ft 429 kts 134°
2026-05-09 11:46 48.97999 10.49969 19766 ft 429 kts 134°
2026-05-09 11:46 48.95937 10.53255 19092 ft 429 kts 134°
2026-05-09 11:46 48.93870 10.56543 18449 ft 428 kts 134°
2026-05-09 11:47 48.91815 10.59812 17755 ft 425 kts 135°
2026-05-09 11:47 48.89777 10.63042 17109 ft 421 kts 135°
2026-05-09 11:47 48.87755 10.66247 16558 ft 416 kts 135°
2026-05-09 11:47 48.85765 10.69400 16063 ft 410 kts 135°
2026-05-09 11:48 48.83805 10.72500 15593 ft 404 kts 135°
2026-05-09 11:48 48.81871 10.75560 15149 ft 398 kts 135°
2026-05-09 11:48 48.79958 10.78579 14706 ft 394 kts 135°
2026-05-09 11:48 48.78064 10.81550 14257 ft 389 kts 135°
2026-05-09 11:49 48.76188 10.84493 13816 ft 386 kts 135°
2026-05-09 11:49 48.74332 10.87407 13408 ft 379 kts 135°
2026-05-09 11:49 48.72532 10.90226 13292 ft 364 kts 135°
2026-05-09 11:49 48.70804 10.92933 13168 ft 350 kts 135°
2026-05-09 11:50 48.69110 10.95582 13108 ft 336 kts 135°
2026-05-09 11:50 48.67514 10.98069 13105 ft 321 kts 135°
2026-05-09 11:50 48.65991 11.00443 13105 ft 311 kts 135°
2026-05-09 11:50 48.64481 11.02788 13104 ft 310 kts 135°
2026-05-09 11:51 48.62966 11.05138 12725 ft 313 kts 135°
2026-05-09 11:51 48.61446 11.07496 12288 ft 312 kts 136°
2026-05-09 11:51 48.59962 11.09798 11938 ft 308 kts 136°
2026-05-09 11:51 48.58418 11.12093 11554 ft 306 kts 140°
2026-05-09 11:52 48.56797 11.14091 11132 ft 304 kts 146°
2026-05-09 11:52 48.55057 11.15911 10699 ft 304 kts 148°
2026-05-09 11:52 48.53312 11.17698 10288 ft 304 kts 144°
2026-05-09 11:52 48.51960 11.20097 10093 ft 298 kts 115°
2026-05-09 11:53 48.51536 11.23138 10103 ft 298 kts 88°
2026-05-09 11:53 48.51747 11.26219 9893 ft 293 kts 82°
2026-05-09 11:53 48.51936 11.28288 9563 ft 295 kts 82°
2026-05-09 11:53 48.52222 11.31368 9085 ft 296 kts 82°
2026-05-09 11:54 48.52495 11.34437 8625 ft 298 kts 82°
2026-05-09 11:54 48.52738 11.37557 8155 ft 299 kts 88°
2026-05-09 11:54 48.52407 11.40625 7614 ft 296 kts 114°
2026-05-09 11:54 48.51257 11.43085 7133 ft 281 kts 141°
2026-05-09 11:55 48.49579 11.44403 6696 ft 269 kts 168°
2026-05-09 11:56 48.43077 11.37018 5982 ft 239 kts 212°
2026-05-09 11:56 48.41565 11.36149 5741 ft 233 kts 184°
2026-05-09 11:56 48.39940 11.36114 5394 ft 235 kts 176°
2026-05-09 11:57 48.38312 11.36262 5118 ft 235 kts 175°
2026-05-09 11:57 48.36685 11.36459 5002 ft 233 kts 168°
2026-05-09 11:57 48.35231 11.37401 4993 ft 229 kts 136°
2026-05-09 11:57 48.34292 11.39321 5002 ft 230 kts 112°
2026-05-09 11:58 48.33822 11.41603 5000 ft 226 kts 99°
2026-05-09 11:58 48.33717 11.43892 4990 ft 211 kts 88°
2026-05-09 11:58 48.33862 11.45988 5027 ft 192 kts 83°
2026-05-09 11:58 48.34058 11.47865 4991 ft 175 kts 82°
2026-05-09 11:59 48.34232 11.49640 4973 ft 165 kts 83°
2026-05-09 11:59 48.34380 11.51334 4818 ft 166 kts 83°
2026-05-09 11:59 48.34519 11.53078 4587 ft 164 kts 84°
2026-05-09 11:59 48.34645 11.54783 4363 ft 162 kts 85°
2026-05-09 12:00 48.34765 11.56434 4137 ft 160 kts 85°
2026-05-09 12:00 48.34884 11.58096 3951 ft 157 kts 85°
2026-05-09 12:00 48.34999 11.59700 3712 ft 153 kts 84°
2026-05-09 12:00 48.35118 11.61328 3534 ft 159 kts 84°
2026-05-09 12:01 48.35240 11.62990 3327 ft 159 kts 84°
2026-05-09 12:01 48.35362 11.64642 3123 ft 158 kts 84°
2026-05-09 12:01 48.35483 11.66248 2866 ft 152 kts 85°
2026-05-09 12:01 48.35601 11.67833 2718 ft 152 kts 84°
2026-05-09 12:02 48.35719 11.69392 2492 ft 148 kts 84°
2026-05-09 12:02 48.35835 11.70931 2273 ft 147 kts 84°
2026-05-09 12:02 48.35951 11.72481 2070 ft 150 kts 83°
2026-05-09 12:02 48.36074 11.74037 1874 ft 149 kts 84°
2026-05-09 12:03 48.36188 11.75591 1682 ft 150 kts 84°
2026-05-09 12:03 48.36304 11.77118 1532 ft 149 kts 84°
2026-05-09 12:03 48.36416 11.78560 1489 ft 118 kts 83°
2026-05-09 12:03 48.36488 11.79509 1494 ft 73 kts 83°
2026-05-09 12:04 48.36446 11.80216 1482 ft 65 kts 111°
2026-05-09 12:04 48.36383 11.80434 1486 ft 10 kts 115°
2026-05-09 12:04 48.36347 11.80540 1478 ft 11 kts 135°
2026-05-09 12:04 48.36265 11.80576 1482 ft 14 kts 172°
2026-05-09 12:05 48.36189 11.80531 1489 ft 13 kts 245°
2026-05-09 12:05 48.36171 11.80377 1492 ft 17 kts 264°
2026-05-09 12:05 48.36158 11.80182 1485 ft 20 kts 264°
2026-05-09 12:05 48.36143 11.79955 1486 ft 23 kts 264°
2026-05-09 12:06 48.36125 11.79701 1484 ft 26 kts 263°
2026-05-09 12:06 48.36109 11.79543 1494 ft 14 kts 249°
2026-05-09 12:06 48.36019 11.79493 1487 ft 8 kts 173°
2026-05-09 12:06 48.35960 11.79501 1500 ft 1 kts 173°
2026-05-09 12:07 48.35953 11.79502 1501 ft 0 kts 174°
2026-05-09 12:07 48.35908 11.79511 1485 ft 7 kts 172°
2026-05-09 12:07 48.35883 11.79516 1481 ft 0 kts 173°
2026-05-09 12:09 48.35881 11.79516 1481 ft 1 kts 173°
2026-05-09 12:09 48.35862 11.79520 1487 ft 4 kts 173°
2026-05-09 12:10 48.35659 11.79556 1491 ft 15 kts 173°
2026-05-09 12:10 48.35540 11.79577 1494 ft 19 kts 173°
2026-05-09 12:10 48.35398 11.79601 1488 ft 22 kts 173°
2026-05-09 12:11 48.35256 11.79626 1482 ft 16 kts 173°
2026-05-09 12:11 48.35130 11.79648 1483 ft 20 kts 173°
2026-05-09 12:11 48.35057 11.79660 1488 ft 1 kts 173°
2026-05-09 12:11 48.35042 11.79659 1484 ft 4 kts 190°
2026-05-09 12:12 48.35007 11.79630 1480 ft 8 kts 221°
2026-05-09 12:12 48.34965 11.79559 1480 ft 6 kts 197°
2026-05-09 12:12 48.34963 11.79558 1480 ft 0 kts 191°
2026-05-09 12:13 48.34952 11.79555 1479 ft 4 kts 191°
2026-05-09 12:13 48.34921 11.79551 1506 ft 6 kts 181°
2026-05-09 12:14 48.34883 11.79553 1508 ft 7 kts 173°
2026-05-09 12:14 48.34871 11.79555 1481 ft 0 kts 174°
2026-05-09 12:14 48.34852 11.79557 1479 ft 8 kts 182°
2026-05-09 12:14 48.34801 11.79523 1478 ft 10 kts 232°
2026-05-09 12:15 48.34776 11.79394 1487 ft 16 kts 262°
2026-05-09 12:15 48.34764 11.79207 1494 ft 20 kts 264°
2026-05-09 12:15 48.34747 11.78975 1490 ft 24 kts 263°
2026-05-09 12:15 48.34726 11.78704 1486 ft 28 kts 263°
2026-05-09 12:16 48.34702 11.78401 1489 ft 30 kts 263°
2026-05-09 12:16 48.34676 11.78072 1494 ft 33 kts 263°
2026-05-09 12:16 48.34653 11.77778 1485 ft 23 kts 263°
2026-05-09 12:16 48.34632 11.77512 1491 ft 27 kts 264°
2026-05-09 12:17 48.34661 11.77430 1486 ft 9 kts 331°
2026-05-09 12:17 48.34701 11.77407 1481 ft 0 kts 354°
2026-05-09 12:17 48.34716 11.77405 1483 ft 4 kts 354°
2026-05-09 12:17 48.34761 11.77389 1478 ft 9 kts 332°
2026-05-09 12:18 48.34792 11.77294 1484 ft 13 kts 272°
2026-05-09 12:18 48.34791 11.77270 1485 ft 0 kts 266°
2026-05-09 12:19 48.34790 11.77251 1485 ft 4 kts 266°
2026-05-09 12:19 48.34787 11.77182 1487 ft 9 kts 265°
2026-05-09 12:20 48.34786 11.77170 1489 ft 0 kts 265°
2026-05-09 12:20 48.34785 11.77147 1480 ft 4 kts 263°
2026-05-09 12:20 48.34779 11.77076 1484 ft 9 kts 263°
2026-05-09 12:21 48.34769 11.76955 1482 ft 14 kts 263°
2026-05-09 12:21 48.34759 11.76829 1494 ft 8 kts 263°
2026-05-09 12:21 48.34758 11.76807 1494 ft 3 kts 267°
2026-05-09 12:21 48.34770 11.76766 1479 ft 6 kts 321°
2026-05-09 12:22 48.34820 11.76742 1482 ft 4 kts 353°
2026-05-09 12:22 48.34828 11.76740 1483 ft 3 kts 352°
2026-05-09 12:22 48.34845 11.76736 1480 ft 0 kts 352°